EW8474 Weather Reports


Display with metric or nautical units.
time (UTC)temp
F
wind
direction
speed
MPH
gust
MPH
rain 1hr
in
rain 24hr
in
rain mn
in
humidity
%
barometer
mb
20260505083034 55 8 0.0 0.0 0.00 0.00 0.00 83 1010.5
20260505081524 55 8 0.0 0.0 0.00 0.00 0.00 83 1010.4
20260505080027 56 8 0.0 0.0 0.00 0.00 0.00 81 1010.4
20260505074519 56 285 0.0 0.0 0.00 0.00 0.00 80 1010.3
20260505073016 57 277 0.0 0.0 0.00 0.00 0.00 81 1010.1
20260505071517 57 277 0.0 0.0 0.00 0.00 0.00 78 1009.9
20260505070011 58 277 0.0 0.0 0.00 0.00 0.00 77 1009.7
20260505064510 58 34 0.0 0.0 0.00 0.00 0.00 77 1009.6
20260505063011 59 259 0.0 0.0 0.00 0.00 0.00 80 1009.5
20260505061507 59 243 0.0 0.0 0.00 0.00 0.00 78 1009.4
20260505060006 60 243 0.0 0.0 0.00 0.00 0.00 75 1009.2
20260505054505 61 291 0.0 3.0 0.00 0.00 0.00 73 1009.0
20260505053005 61 304 0.0 0.0 0.00 0.00 0.00 75 1009.0
20260505051503 61 278 0.0 0.0 0.00 0.00 0.00 76 1008.7
20260505041505 63 334 0.0 0.0 0.00 0.00 0.00 72 1008.2
20260505040105 63 334 0.0 0.0 0.00 0.00 0.00 71 1008.0
20260505034601 63 239 0.0 3.0 0.00 0.00 0.00 70 1007.9
20260505033059 65 288 2.0 4.0 0.00 0.00 0.00 67 1007.7
20260505031605 66 360 1.0 4.0 0.00 0.00 0.00 64 1007.8
20260505030106 67 328 3.0 8.0 0.00 0.00 0.00 62 1007.7
20260505024612 68 288 3.0 8.0 0.00 0.00 0.00 60 1007.5
20260505023100 68 314 0.0 8.0 0.00 0.00 0.00 61 1007.5
20260505021558 68 277 3.0 7.0 0.00 0.00 0.00 59 1007.4
20260505020103 68 309 5.0 13.0 0.00 0.00 0.00 58 1007.4
20260505014555 68 284 2.0 8.0 0.00 0.00 0.00 62 1007.4
20260505013055 68 278 3.0 11.0 0.00 0.00 0.00 60 1007.5
20260505011553 69 249 4.0 8.0 0.00 0.00 0.00 56 1007.5
20260505010109 70 301 4.0 8.0 0.00 0.00 0.00 55 1007.5
20260505004553 71 259 2.0 5.0 0.00 0.00 0.00 55 1007.5
20260505003053 73 314 2.0 7.0 0.00 0.00 0.00 55 1007.4
20260505001551 75 316 2.0 6.0 0.00 0.00 0.00 54 1007.3
20260505000058 75 214 4.0 7.0 0.00 0.00 0.00 52 1007.3
20260504234551 75 308 2.0 5.0 0.00 0.00 0.00 53 1007.5
20260504233053 76 305 1.0 5.0 0.00 0.00 0.00 54 1007.5
20260504231546 76 314 3.0 7.0 0.00 0.00 0.00 52 1007.6
20260504230107 77 313 3.0 6.0 0.00 0.00 0.00 47 1007.5
20260504224558 76 296 1.0 5.0 0.00 0.00 0.00 51 1007.6
20260504223040 76 342 2.0 7.0 0.00 0.00 0.00 49 1007.7
20260504221539 74 256 2.0 5.0 0.00 0.00 0.00 49 1007.9
20260504220040 75 281 1.0 7.0 0.00 0.00 0.00 47 1008.1
20260504214542 75 297 2.0 5.0 0.00 0.00 0.00 43 1008.3
20260504213035 75 293 2.0 7.0 0.00 0.00 0.00 42 1008.3
20260504211532 75 285 2.0 7.0 0.00 0.00 0.00 41 1008.4
20260504210029 74 318 3.0 7.0 0.00 0.00 0.00 42 1008.5
20260504204527 75 284 1.0 7.0 0.00 0.00 0.00 44 1008.5
20260504203023 74 313 1.0 6.0 0.00 0.00 0.00 45 1008.6
20260504201522 73 293 2.0 6.0 0.00 0.00 0.00 49 1008.6
20260504200021 73 311 2.0 6.0 0.00 0.00 0.00 49 1008.8
20260504194519 73 242 0.0 6.0 0.00 0.00 0.00 49 1008.7
20260504193019 73 292 2.0 5.0 0.00 0.00 0.00 49 1008.8
20260504191515 72 327 2.0 4.0 0.00 0.00 0.00 51 1008.8
20260504190015 72 309 2.0 5.0 0.00 0.00 0.00 51 1008.9
20260504184612 70 217 1.0 6.0 0.00 0.00 0.00 53 1008.9
20260504183008 67 309 2.0 6.0 0.00 0.00 0.00 57 1009.0
20260504181507 66 288 2.0 5.0 0.00 0.00 0.00 62 1009.1
20260504180006 67 309 2.0 6.0 0.00 0.00 0.00 62 1009.0
20260504174505 68 272 1.0 4.0 0.00 0.00 0.00 57 1008.8
20260504173003 67 221 0.0 3.0 0.00 0.00 0.00 62 1008.9
20260504171601 67 316 1.0 4.0 0.00 0.00 0.00 63 1009.0
20260504171502 67 261 1.0 4.0 0.00 0.00 0.00 61 1009.0